Regional Weather Roundup
Issued by NWS

Home | Current Version | Previous Version | Graphics & Text | Print | Product List | Glossary On
Versions: 1 2 3 4 5 6 7 8 9 10 11 12 13 14 15 16 17 18 19 20 21 22 23 24 25 26 27 28 29 30 31 32 33 34 35 36 37 38 39 40 41 42 43 44 45 46 47 48 49 50
000
ASUS43 KOAX 201510
RWRNE

WEATHER ROUNDUP FOR NEBRASKA
NATIONAL WEATHER SERVICE OMAHA NE
900 AM CST TUE FEB 20 2018

NOTES: SATELLITE DATA IS BEING USED TO AUGMENT CLOUD COVER ABOVE
       12000 FEET.
       "FAIR" INDICATES FEW OR NO CLOUDS BELOW 12,000 FEET WITH NO
       SIGNIFICANT WEATHER AND/OR OBSTRUCTIONS TO VISIBILITY.


NEZ001>004-019>022-054>056-201600-
NEBRASKA PANHANDLE

CITY           SKY/WX    TMP DP  RH WIND       PRES   REMARKS
SCOTTSBLUFF    SUNNY     -8 -14  74 NW5       30.04R WCI -19
ALLIANCE       SUNNY    -18 -21  87 W8        30.01R WCI -36
CHADRON        SUNNY    -10 -15  78 SW5       30.10R WCI -22
GORDON         FAIR      -6 -12  77 W6        30.03R WCI -19
KIMBALL        SUNNY     -9 -15  77 NW13      29.93R WCI -30
SIDNEY         SUNNY     -4 -10  75 NW8       30.00R WCI -19
$$

NEZ057>060-069>072-079>082-201600-
SOUTHWEST NEBRASKA

CITY           SKY/WX    TMP DP  RH WIND       PRES   REMARKS
NORTH PLATTE   SUNNY      4  -5  66 NW12      30.09R WCI -12
IMPERIAL       SUNNY      3  -4  72 NW15      30.06R WCI -16
LEXINGTON      MOSUNNY    8   0  68 NW18      30.12R WCI -10
MCCOOK         SUNNY      7  -1  70 NW15      30.11R WCI -10
OGALLALA       SUNNY      3  -5  69 NW14      30.07R HAZE    WCI -15
$$

NEZ005>010-023>029-035>040-094-201600-
NORTH CENTRAL NEBRASKA

CITY           SKY/WX    TMP DP  RH WIND       PRES   REMARKS
VALENTINE      CLOUDY     2  -6  69 NW15      30.07R WCI -17
AINSWORTH      MOSUNNY    3  -2  79 NW18G26   30.08R HAZE    WCI -18
BROKEN BOW     MOSUNNY    5  -4  66 NW13      30.07R WCI -12
O`NEILL        CLOUDY     5   0  79 NW17      30.07S WCI -15
ORD            MOSUNNY    6  -3  66 NW15      30.09R WCI -12
THEDFORD       PTSUNNY    4  -3  72 NW13G22   30.07R WCI -13
$$

NEZ041-046>049-061>064-073>077-083>087-201600-
SOUTH CENTRAL NEBRASKA

CITY           SKY/WX    TMP DP  RH WIND       PRES   REMARKS
GRAND ISLAND   CLOUDY    10   2  69 NW23G33   30.08S WCI -10
AURORA         CLOUDY     8   1  72 NW16      30.09R WCI  -9
HASTINGS       CLOUDY    10   1  67 N24G31    30.09R WCI -10
HEBRON         CLOUDY    15   9  76 NW18      30.10R WCI  -1
HOLDREGE       CLOUDY     9   2  72 N16       30.09R WCI  -9
KEARNEY        CLOUDY     8   1  73 N16       30.12R WCI -10
YORK           CLOUDY    10   5  79 NW23G31   30.09R WCI -10
$$

NEZ011>018-030>034-042>045-201600-
NORTHEAST NEBRASKA

CITY           SKY/WX    TMP DP  RH WIND       PRES   REMARKS
NORFOLK        CLOUDY     8   2  76 NW24G33   30.06R WCI -13
ALBION         CLOUDY     8   1  73 NW22G29   30.07F WCI -12
BLAIR          FLURRIES  15  11  82 NW7       30.04R WCI   6
COLUMBUS       CLOUDY    11   4  73 NW20      30.08R WCI  -7
FREMONT        CLOUDY    14  10  82 NW14      30.08R WCI  -1
TEKAMAH        CLOUDY    13   8  81 NW21      30.08R WCI  -5
WAYNE          CLOUDY     8   3  79 NW16G25   30.07S WCI -10
$$

NEZ050>053-065>068-078-088>093-201600-
SOUTHEAST NEBRASKA

CITY           SKY/WX    TMP DP  RH WIND       PRES   REMARKS
LINCOLN        CLOUDY    14   7  73 NW17G28   30.10R WCI  -3
OMAHA EPPLEY   CLOUDY    17  11  77 NW20      30.07R WCI   1
BEATRICE       CLOUDY    18  13  80 NW20      30.07R WCI   2
FALLS CITY     CLOUDY    22  18  85 NW17G26   30.02R WCI   8
NEBRASKA CITY  CLOUDY    20  18  92 NW16      30.05S WCI   5
PLATTSMOUTH    CLOUDY    18  14  86 NW18      30.04R WCI   2
$$

NEZ044-045-051>053-067-201600-
OMAHA AREA

CITY           SKY/WX    TMP DP  RH WIND       PRES   REMARKS
OMAHA EPPLEY   CLOUDY    17  11  77 NW20      30.07R WCI   1
BLAIR          FLURRIES  15  11  82 NW7       30.04R WCI   6
FREMONT        CLOUDY    14  10  82 NW14      30.08R WCI  -1
MILLARD        CLOUDY    18  12  77 NW13G20   30.09R WCI   5
OFFUTT AFB     CLOUDY    18  13  80 NW15      30.06R WCI   3
PLATTSMOUTH    CLOUDY    18  14  86 NW18      30.04R WCI   2
WAHOO          CLOUDY    14   8  78 NW16      30.08R WCI  -2
$$



USA.gov is the U.S. government's official web portal to all federal, state and local government web resources and services.